GW5341 Weather Reports


time (UTC)temp
F
wind
direction
speed
knots
gust
knots
rain 1hr
in
rain 24hr
in
rain mn
in
humidity
%
barometer
mb
20260906225506 76 152 7.8 12.2 0.00 0.00 0.00 34 1023.0
20260906225008 77 134 5.2 9.6 0.00 0.00 0.00 33 1023.0
20260906224520 77 113 5.2 13.0 0.00 0.00 0.00 34 1023.0
20260906224009 77 155 8.7 15.6 0.00 0.00 0.00 32 1023.0
20260906223503 79 133 10.4 16.5 0.00 0.00 0.00 32 1023.0
20260906223003 81 133 9.6 16.5 0.00 0.00 0.00 30 1023.1
20260906222503 82 108 4.3 13.0 0.00 0.01 0.00 23 1023.0
20260906222003 81 278 3.5 7.0 0.00 0.01 0.00 25 1023.0
20260906221506 80 265 2.6 7.0 0.00 0.01 0.00 25 1023.0
20260906221004 81 306 4.3 7.0 0.00 0.01 0.00 23 1023.0
20260906220506 79 295 0.9 5.2 0.00 0.01 0.00 24 1023.1
20260906220030 79 288 1.7 5.2 0.00 0.01 0.00 25 1023.2
20260906215504 78 283 3.5 5.2 0.00 0.01 0.00 25 1023.4
20260906215004 79 233 2.6 12.2 0.00 0.01 0.00 25 1023.4
20260906214519 78 269 4.3 12.2 0.00 0.01 0.00 25 1023.3
20260906214009 79 300 5.2 10.4 0.00 0.01 0.00 24 1023.3
20260906213510 79 311 7.8 10.4 0.00 0.01 0.00 25 1023.3
20260906213023 80 292 4.3 13.0 0.00 0.02 0.00 24 1023.5
20260906212511 81 295 6.1 13.0 0.00 0.02 0.00 23 1023.5
20260906212004 81 266 3.5 11.3 0.00 0.02 0.00 24 1023.6
20260906211505 81 230 6.1 17.4 0.00 0.02 0.00 24 1023.6
20260906211005 79 265 4.3 17.4 0.00 0.02 0.00 25 1023.6
20260906210503 80 286 7.0 11.3 0.00 0.02 0.00 24 1023.7
20260906210005 81 238 6.1 15.6 0.00 0.02 0.00 24 1023.8
20260906205504 80 287 3.5 17.4 0.00 0.02 0.00 24 1023.7
20260906205004 80 171 8.7 17.4 0.00 0.02 0.00 25 1023.5
20260906204511 80 82 2.6 11.3 0.00 0.02 0.00 24 1023.8
20260906204007 80 309 5.2 11.3 0.00 0.02 0.00 25 1023.9
20260906203507 80 316 7.0 11.3 0.00 0.02 0.00 25 1023.8
20260906203018 80 319 5.2 12.2 0.00 0.02 0.00 25 1023.9
20260906202507 80 302 4.3 13.9 0.00 0.02 0.00 25 1024.0
20260906202014 80 296 8.7 13.9 0.00 0.02 0.00 25 1023.9
20260906201523 80 288 6.1 13.9 0.00 0.02 0.00 25 1024.1
20260906201012 79 282 8.7 12.2 0.00 0.02 0.00 26 1024.1
20260906200512 80 320 6.1 11.3 0.00 0.02 0.00 26 1024.3
20260906200005 79 319 8.7 12.2 0.00 0.02 0.00 26 1024.2
20260906195504 79 309 8.7 12.2 0.00 0.02 0.00 25 1024.3
20260906195005 79 349 4.3 9.6 0.00 0.02 0.00 26 1024.5
20260906194515 79 344 5.2 11.3 0.00 0.02 0.00 25 1024.6
20260906194009 78 1 3.5 11.3 0.00 0.02 0.00 25 1024.7
20260906193506 78 1 6.1 11.3 0.00 0.02 0.00 25 1024.7
20260906193016 77 299 2.6 12.2 0.00 0.02 0.00 26 1024.8
20260906192507 78 319 7.0 12.2 0.00 0.02 0.00 25 1025.0
20260906192011 78 288 7.0 9.6 0.00 0.02 0.00 26 1025.0
20260906191519 78 303 6.1 9.6 0.00 0.02 0.00 26 1025.0
20260906191008 78 359 1.7 5.2 0.00 0.02 0.00 27 1025.1
20260906190512 78 49 2.6 6.1 0.00 0.02 0.00 27 1025.1
20260906190030 78 16 1.7 7.8 0.00 0.02 0.00 29 1025.2
20260906185518 77 312 0.9 7.8 0.00 0.02 0.00 29 1025.2
20260906185016 76 30 2.6 7.8 0.00 0.02 0.00 30 1025.3
20260906184537 76 282 1.7 7.0 0.00 0.02 0.00 30 1025.6
20260906184004 76 20 3.5 7.8 0.00 0.02 0.00 30 1025.7
20260906183503 75 283 1.7 7.8 0.00 0.02 0.00 32 1025.8
20260906183014 75 305 5.2 7.0 0.00 0.02 0.00 32 1025.9
20260906182507 75 319 2.6 7.0 0.00 0.02 0.00 33 1026.0
20260906182009 75 259 0.9 7.0 0.00 0.02 0.00 33 1026.1
20260906181540 74 231 0.9 5.2 0.00 0.02 0.00 35 1026.2
20260906181008 74 75 2.6 5.2 0.00 0.02 0.00 34 1026.4
20260906180510 73 326 0.0 6.1 0.00 0.02 0.00 36 1026.5
20260906180025 73 354 2.6 6.1 0.00 0.02 0.00 36 1026.7
20260906175510 72 4 1.7 5.2 0.00 0.02 0.00 36 1026.8
20260906175011 72 291 0.9 6.1 0.00 0.02 0.00 36 1027.0
20260906174525 72 17 2.6 6.1 0.00 0.02 0.00 35 1027.1
20260906174014 72 326 2.6 6.1 0.00 0.02 0.00 37 1027.2
20260906173515 71 303 0.9 6.1 0.00 0.02 0.00 38 1027.4
20260906173031 71 290 1.7 6.1 0.00 0.02 0.00 39 1027.4
20260906172503 69 273 0.9 5.2 0.00 0.02 0.00 40 1027.6
20260906172004 69 340 4.3 5.2 0.00 0.02 0.00 42 1027.7
20260906171512 69 329 1.7 5.2 0.00 0.02 0.00 44 1027.7
20260906171005 69 51 2.6 7.0 0.00 0.02 0.00 44 1027.8
20260906170506 69 8 4.3 7.0 0.00 0.02 0.00 45 1027.8
20260906170021 69 1 3.5 7.0 0.00 0.02 0.00 47 1027.8
20260906165508 69 354 1.7 6.1 0.00 0.02 0.00 46 1027.9
20260906165011 68 294 1.7 5.2 0.00 0.02 0.00 46 1027.9
20260906164526 67 54 1.7 5.2 0.00 0.02 0.00 47 1027.9
20260906164014 67 304 3.5 5.2 0.00 0.02 0.00 49 1028.0
20260906163511 67 325 1.7 5.2 0.00 0.02 0.00 48 1028.0
20260906163033 67 306 3.5 5.2 0.00 0.02 0.00 51 1028.0
20260906162516 66 300 1.7 5.2 0.00 0.02 0.00 52 1028.0
20260906162016 65 290 1.7 4.3 0.00 0.02 0.00 52 1028.1
20260906161533 65 347 1.7 3.5 0.00 0.02 0.00 53 1028.2
20260906161015 65 30 0.9 2.6 0.00 0.02 0.00 52 1028.3
20260906160506 64 75 0.0 3.5 0.00 0.02 0.00 52 1028.4
20260906160014 64 119 0.9 3.5 0.00 0.02 0.00 54 1028.5
20260906155509 63 135 1.7 2.6 0.00 0.02 0.00 56 1028.7
20260906155009 62 219 0.9 1.7 0.00 0.02 0.00 58 1028.6
20260906154520 61 269 0.0 1.7 0.00 0.02 0.00 59 1028.6
20260906154010 60 296 0.0 1.7 0.00 0.02 0.00 62 1028.7
20260906153512 60 302 0.0 1.7 0.00 0.02 0.00 61 1028.6
20260906153032 59 354 0.0 1.7 0.00 0.02 0.00 62 1028.6
20260906152514 59 167 0.0 0.0 0.00 0.02 0.00 64 1028.6
20260906152016 57 263 0.0 0.0 0.00 0.02 0.00 66 1028.5
20260906151532 57 278 0.0 0.9 0.00 0.02 0.00 68 1028.6
20260906151015 56 328 0.0 1.7 0.00 0.02 0.00 69 1028.6
20260906150516 56 328 0.9 1.7 0.00 0.02 0.00 68 1028.7
20260906150013 55 285 0.0 1.7 0.00 0.02 0.00 70 1028.8
20260906145505 55 309 0.9 1.7 0.00 0.02 0.00 69 1028.8
20260906145005 55 289 0.0 0.0 0.00 0.02 0.00 71 1028.9
20260906144519 54 330 0.0 0.0 0.00 0.02 0.00 71 1028.9
20260906144009 54 267 0.0 0.0 0.00 0.02 0.00 72 1028.8
20260906143508 53 99 0.0 0.0 0.00 0.02 0.00 73 1028.9
20260906143006 53 122 0.0 0.0 0.00 0.02 0.00 74 1029.0
20260906142502 52 155 0.0 0.0 0.00 0.02 0.00 74 1029.1
20260906142005 51 139 0.0 0.0 0.00 0.02 0.00 77 1029.1
20260906141505 51 96 0.0 0.0 0.00 0.02 0.00 79 1029.0
20260906141008 50 86 0.0 0.0 0.00 0.02 0.00 80 1029.0
20260906140504 49 102 0.0 0.0 0.00 0.02 0.00 83 1029.1
20260906140012 47 192 0.0 0.0 0.00 0.02 0.00 85 1029.1
20260906135502 46 191 0.0 0.0 0.00 0.02 0.00 84 1029.0
20260906135003 46 192 0.0 0.0 0.00 0.02 0.00 86 1028.9
20260906134511 45 191 0.0 0.0 0.00 0.02 0.00 88 1028.7
20260906134004 44 191 0.0 0.0 0.00 0.02 0.00 87 1028.7
20260906133507 44 187 0.0 0.0 0.00 0.02 0.00 87 1028.6
20260906133018 44 187 0.0 0.0 0.00 0.02 0.00 87 1028.6
20260906132508 44 186 0.0 0.0 0.00 0.02 0.00 87 1028.7
20260906132009 44 186 0.0 0.0 0.00 0.02 0.00 88 1028.7
20260906131505 44 186 0.0 0.0 0.00 0.02 0.00 87 1028.6
20260906131002 44 186 0.0 0.0 0.00 0.02 0.00 86 1028.5
20260906130503 44 207 0.0 0.0 0.00 0.02 0.00 86 1028.4
20260906130005 45 197 0.0 0.0 0.00 0.02 0.00 86 1028.4
20260906125503 45 197 0.0 0.0 0.00 0.02 0.00 86 1028.3
20260906125002 45 197 0.0 0.0 0.00 0.02 0.00 87 1028.2
20260906124510 45 197 0.0 0.0 0.00 0.02 0.00 86 1028.2
20260906124007 45 197 0.0 0.0 0.00 0.02 0.00 87 1028.1
20260906123506 44 197 0.0 0.0 0.00 0.02 0.00 86 1028.2
20260906123026 45 178 0.0 0.0 0.00 0.02 0.00 86 1028.1
20260906122507 45 165 0.0 0.0 0.00 0.02 0.00 87 1028.2
20260906122008 45 165 0.0 0.0 0.00 0.02 0.00 86 1028.2
20260906121529 45 165 0.0 0.0 0.00 0.02 0.00 85 1028.3
20260906121011 45 165 0.0 0.0 0.00 0.02 0.00 86 1028.1
20260906120511 45 165 0.0 0.0 0.00 0.02 0.00 86 1028.1
20260906120028 45 165 0.0 0.0 0.00 0.02 0.00 86 1028.1
20260906115503 45 165 0.0 0.0 0.00 0.02 0.00 86 1028.0
20260906115002 44 165 0.0 0.0 0.00 0.02 0.00 87 1028.0
20260906114520 44 165 0.0 0.0 0.00 0.02 0.00 86 1028.0
20260906114003 44 165 0.0 0.0 0.00 0.02 0.00 85 1028.2
20260906113505 45 165 0.0 0.0 0.00 0.02 0.00 86 1028.2
20260906113013 44 165 0.0 0.0 0.00 0.02 0.00 86 1028.2
20260906112503 44 165 0.0 0.0 0.00 0.02 0.00 86 1028.1
20260906112007 44 163 0.0 0.0 0.00 0.02 0.00 87 1028.2
20260906111523 44 160 0.0 0.0 0.00 0.02 0.00 85 1028.1
20260906111007 44 162 0.0 0.0 0.00 0.02 0.00 86 1028.1
20260906110511 44 153 0.0 0.0 0.00 0.02 0.00 84 1028.2
20260906110023 45 192 0.0 0.0 0.00 0.02 0.00 85 1028.2
20260906105510 45 224 0.0 0.0 0.00 0.02 0.00 84 1028.1
20260906105013 46 224 0.0 0.0 0.00 0.02 0.00 83 1028.0
20260906104528 46 143 0.0 0.0 0.00 0.02 0.00 83 1028.1
20260906104015 47 143 0.0 0.0 0.00 0.02 0.00 83 1028.1
20260906103503 47 144 0.0 0.0 0.00 0.02 0.00 81 1028.1
20260906103007 47 143 0.0 0.0 0.00 0.02 0.00 84 1028.0
20260906102505 46 144 0.0 0.0 0.00 0.02 0.00 86 1027.8
20260906102003 45 143 0.0 0.0 0.00 0.02 0.00 86 1027.9
20260906101515 44 143 0.0 0.0 0.00 0.02 0.00 86 1027.9
20260906101010 45 161 0.0 0.0 0.00 0.02 0.00 86 1027.8
20260906100509 45 179 0.0 0.0 0.00 0.02 0.00 85 1027.8
20260906100018 45 179 0.0 0.0 0.00 0.02 0.00 84 1027.7
20260906095513 46 179 0.0 0.0 0.00 0.02 0.00 82 1027.7
20260906095012 47 182 0.0 0.0 0.00 0.02 0.00 85 1027.7
20260906094525 47 182 0.0 0.0 0.00 0.02 0.00 83 1027.7
20260906094011 47 181 0.0 0.0 0.00 0.02 0.00 83 1027.7
20260906093514 47 172 0.0 0.0 0.00 0.02 0.00 84 1027.7
20260906093028 47 172 0.0 0.0 0.00 0.02 0.00 83 1027.7
20260906092515 48 157 0.0 0.0 0.00 0.02 0.00 82 1027.7
20260906092015 48 193 0.0 0.0 0.00 0.02 0.00 82 1027.7
20260906091515 48 179 0.0 0.0 0.00 0.02 0.00 81 1027.7
20260906091004 49 203 0.0 0.0 0.00 0.02 0.00 80 1027.7
20260906090506 49 198 0.0 0.0 0.00 0.02 0.00 81 1027.7
20260906090017 49 198 0.0 0.0 0.00 0.02 0.00 80 1027.7
20260906085508 49 199 0.0 0.0 0.00 0.02 0.00 80 1027.7
20260906085008 49 240 0.0 0.0 0.00 0.02 0.00 81 1027.7
20260906084529 49 141 0.0 0.0 0.00 0.02 0.00 81 1027.5
20260906084012 49 270 0.0 0.0 0.00 0.02 0.00 82 1027.7
20260906083511 48 270 0.0 0.0 0.00 0.02 0.00 81 1027.6
20260906083029 49 270 0.0 0.0 0.00 0.02 0.00 81 1027.6
20260906082511 49 270 0.0 0.0 0.00 0.02 0.00 79 1027.4
20260906082016 49 191 0.0 0.0 0.00 0.02 0.00 80 1027.4
20260906081538 49 191 0.0 0.0 0.00 0.02 0.00 79 1027.5
20260906081017 50 110 0.0 0.0 0.00 0.02 0.00 79 1027.3
20260906080515 50 110 0.0 0.0 0.00 0.02 0.00 79 1027.3
20260906080035 50 110 0.0 0.0 0.00 0.02 0.00 79 1027.6
20260906075506 49 110 0.0 0.0 0.00 0.02 0.00 81 1027.3
20260906075005 49 136 0.0 0.0 0.00 0.02 0.00 80 1027.3
20260906074516 50 131 0.0 0.0 0.00 0.02 0.00 79 1027.3
20260906074013 50 185 0.0 0.0 0.00 0.02 0.00 78 1027.4
20260906073512 51 140 0.0 0.0 0.00 0.02 0.00 76 1027.5
20260906073024 51 186 0.0 0.0 0.00 0.02 0.00 77 1027.5
20260906072513 50 173 0.0 0.0 0.00 0.02 0.00 79 1027.6
20260906072012 50 160 0.0 0.0 0.00 0.02 0.00 78 1027.4
20260906071532 50 155 0.0 0.0 0.00 0.02 0.00 79 1027.3
20260906071017 50 156 0.0 0.0 0.00 0.02 0.00 79 1027.4
20260906070514 50 121 0.0 0.0 0.00 0.02 0.00 78 1027.4
20260906070029 50 207 0.0 0.0 0.00 0.02 0.00 77 1027.4
20260906065516 51 207 0.0 0.0 0.00 0.02 0.00 77 1027.4
20260906065017 50 201 0.0 0.0 0.00 0.02 0.00 79 1027.5
20260906064531 50 148 0.0 3.5 0.00 0.02 0.00 76 1027.5
20260906064018 51 195 1.7 3.5 0.00 0.02 0.00 75 1027.5
20260906063507 52 167 1.7 3.5 0.00 0.02 0.00 72 1027.5
20260906063018 53 143 0.0 0.0 0.00 0.02 0.00 73 1027.5
20260906062507 53 143 0.0 0.9 0.00 0.02 0.00 72 1027.5
20260906062011 52 144 0.0 0.9 0.00 0.02 0.00 74 1027.6
20260906061523 51 144 0.9 1.7 0.00 0.02 0.00 74 1027.7
20260906061014 51 150 1.7 3.5 0.00 0.02 0.00 73 1027.7
20260906060513 52 215 2.6 3.5 0.00 0.02 0.00 72 1027.6
20260906060029 51 195 0.0 3.5 0.00 0.02 0.00 74 1027.6
20260906055513 51 150 2.6 3.5 0.00 0.02 0.02 72 1027.6
20260906055020 52 153 0.0 0.0 0.00 0.02 0.02 71 1027.6
20260906054530 53 155 0.0 0.0 0.00 0.02 0.02 70 1027.6
20260906054016 53 135 0.0 1.7 0.00 0.02 0.02 69 1027.5
20260906053521 53 197 0.0 2.6 0.00 0.02 0.02 70 1027.6
20260906053017 54 139 0.9 2.6 0.00 0.02 0.02 68 1027.6
20260906052506 55 139 0.0 4.3 0.00 0.02 0.02 66 1027.6
20260906052010 55 214 2.6 4.3 0.00 0.02 0.02 67 1027.7
20260906051521 55 333 1.7 6.1 0.00 0.02 0.02 66 1027.5
20260906051011 55 64 0.9 6.1 0.00 0.02 0.02 68 1027.6
20260906050511 56 142 0.0 0.0 0.00 0.02 0.02 65 1027.5
20260906050011 55 163 0.0 0.0 0.00 0.02 0.02 66 1027.5
20260906045505 55 182 0.0 0.9 0.00 0.02 0.02 66 1027.4
20260906045003 55 131 0.0 2.6 0.00 0.02 0.02 67 1027.5
20260906044507 54 128 0.0 3.5 0.00 0.02 0.02 67 1027.4
20260906044007 55 288 0.0 3.5 0.00 0.02 0.02 65 1027.5
20260906043502 56 281 1.7 3.5 0.00 0.02 0.02 64 1027.5
20260906043014 56 301 0.0 0.9 0.00 0.02 0.02 64 1027.4
20260906042505 56 350 0.0 0.0 0.00 0.02 0.02 63 1027.5
20260906042005 56 146 0.0 0.0 0.00 0.02 0.02 63 1027.6
20260906041525 56 290 0.0 6.1 0.00 0.02 0.02 63 1027.5
20260906041011 56 23 0.0 6.1 0.00 0.02 0.02 63 1027.6
20260906040509 57 292 1.7 5.2 0.00 0.02 0.02 62 1027.5
20260906040031 57 30 0.0 5.2 0.00 0.02 0.02 62 1027.7
20260906035510 59 288 1.7 3.5 0.00 0.02 0.02 58 1027.7
20260906035012 62 150 1.7 7.0 0.00 0.02 0.02 55 1027.7
20260906034504 60 120 2.6 8.7 0.00 0.02 0.02 56 1027.7
20260906034002 59 147 4.3 8.7 0.00 0.02 0.02 59 1027.5
20260906033502 59 111 4.3 6.1 0.00 0.02 0.02 61 1027.5
20260906033008 58 158 0.0 3.5 0.00 0.02 0.02 61 1027.5
20260906032505 60 223 0.0 8.7 0.00 0.02 0.02 58 1027.4
20260906032004 61 37 0.0 10.4 0.00 0.02 0.02 57 1027.4
20260906031526 62 110 7.8 11.3 0.00 0.02 0.02 57 1027.2
20260906031006 62 105 8.7 11.3 0.00 0.02 0.02 56 1027.0
20260906030507 62 103 8.7 10.4 0.00 0.02 0.02 56 1026.9
20260906030020 62 110 7.8 10.4 0.00 0.02 0.02 56 1026.9
20260906025512 62 90 7.8 10.4 0.00 0.02 0.02 57 1026.8
20260906025012 60 115 1.7 6.1 0.00 0.02 0.02 59 1026.8
20260906024532 61 71 0.0 0.9 0.00 0.02 0.02 57 1026.8
20260906024011 61 96 0.0 2.6 0.00 0.02 0.02 56 1026.8
20260906023514 62 108 0.0 3.5 0.00 0.02 0.02 55 1026.8
20260906023026 63 160 0.9 3.5 0.00 0.02 0.02 53 1026.7
20260906022505 63 137 0.0 1.7 0.00 0.02 0.02 51 1026.6
20260906022004 64 154 0.0 1.7 0.00 0.02 0.02 50 1026.5
20260906021509 64 195 0.9 1.7 0.00 0.02 0.02 49 1026.5
20260906021003 64 17 0.0 0.0 0.00 0.02 0.02 48 1026.4
20260906020506 65 278 0.0 7.0 0.00 0.02 0.02 48 1026.4
20260906020016 65 218 1.7 7.0 0.00 0.02 0.02 47 1026.3
20260906015507 65 82 3.5 7.0 0.00 0.02 0.02 47 1026.1
20260906015007 66 354 0.0 4.3 0.00 0.02 0.02 46 1026.1
20260906014525 66 47 2.6 5.2 0.00 0.02 0.02 46 1026.0
20260906014014 66 11 1.7 5.2 0.00 0.02 0.02 46 1026.0
20260906013512 67 326 4.3 11.3 0.00 0.02 0.02 45 1025.9
20260906013023 68 263 0.0 11.3 0.00 0.02 0.02 44 1025.7
20260906012513 68 194 2.6 10.4 0.00 0.02 0.02 44 1025.9
20260906012015 68 124 6.1 13.0 0.00 0.02 0.02 44 1025.9
20260906011531 69 205 2.6 16.5 0.00 0.02 0.02 43 1025.9
20260906011016 69 135 4.3 16.5 0.00 0.02 0.02 42 1026.0
20260906010503 69 105 6.1 15.6 0.00 0.02 0.02 40 1026.0
20260906010011 70 122 7.0 15.6 0.00 0.02 0.02 38 1026.1
20260906005503 70 144 9.6 15.6 0.00 0.02 0.02 38 1026.1
20260906005007 70 115 11.3 16.5 0.00 0.02 0.02 37 1025.9
20260906004517 70 187 6.1 16.5 0.00 0.02 0.02 38 1026.1
20260906004006 70 141 7.0 13.0 0.00 0.02 0.02 40 1026.0
20260906003508 70 195 5.2 13.0 0.00 0.02 0.02 39 1026.1
20260906003024 70 119 7.8 12.2 0.00 0.02 0.02 39 1026.1
20260906002511 69 162 6.1 14.8 0.00 0.02 0.02 40 1026.1
20260906002012 68 101 10.4 14.8 0.00 0.02 0.02 43 1026.0
20260906001539 68 110 8.7 19.1 0.00 0.02 0.02 50 1026.1
20260906001020 68 144 7.8 19.1 0.00 0.02 0.02 48 1026.0
20260906000515 67 113 7.8 16.5 0.00 0.02 0.02 50 1026.1
20260906000033 67 86 7.8 18.2 0.00 0.02 0.02 50 1026.0
20260905235515 67 114 9.6 18.2 0.00 0.02 0.02 48 1026.1
20260905235006 68 146 7.8 20.0 0.00 0.02 0.02 47 1026.0
20260905234511 68 141 7.8 20.0 0.00 0.02 0.02 49 1026.1
20260905234003 68 110 8.7 21.7 0.00 0.02 0.02 47 1026.0
20260905233508 69 109 13.9 21.7 0.00 0.02 0.02 44 1026.1
20260905233021 71 89 8.7 20.9 0.00 0.02 0.02 45 1025.8
20260905232507 73 116 13.9 20.0 0.01 0.02 0.02 39 1025.8
20260905232012 74 133 4.3 9.6 0.01 0.02 0.02 34 1025.6
20260905231532 74 132 3.5 9.6 0.01 0.02 0.02 35 1025.5
20260905231014 74 134 4.3 8.7 0.01 0.02 0.02 34 1025.5
20260905230515 74 136 5.2 8.7 0.01 0.02 0.02 34 1025.5
20260905230029 75 136 5.2 7.8 0.01 0.02 0.02 35 1025.6